Total_Precipitation_Accumulation
0.02 0.04 0.02 0.01 0.04 0.04 0.06 0.12 0.06 0.02 0.00 0.00 0.00 0.00 0.00 0.00 0.00 0.00 0.00 0.00 0.00 0.00 0.00 0.00 0.00 0.00 0.00 0.00 0.00 0.00 0.00 0.00 0.00
0.02 0.05 0.04 0.02 0.01 0.01 0.03 0.05 0.07 0.04 0.00 0.00 0.00 0.00 0.00 0.00 0.00 0.00 0.00 0.00 0.00 0.00 0.00 0.00 0.00 0.00 0.00 0.00 0.00 0.00 0.00 0.00 0.00
0.00 0.03 0.03 0.04 0.02 0.01 0.04 0.06 0.10 0.10 0.03 0.00 0.00 0.00 0.00 0.00 0.00 0.00 0.00 0.00 0.00 0.00 0.00 0.00 0.00 0.00 0.00 0.00 0.00 0.00 0.00 0.00 0.00
0.00 0.01 0.02 0.04 0.03 0.03 0.04 0.06 0.06 0.10 0.10 0.06 0.01 0.00 0.00 0.00 0.00 0.00 0.00 0.00 0.00 0.00 0.00 0.00 0.00 0.00 0.00 0.00 0.00 0.00 0.00 0.00 0.00
0.00 0.00 0.01 0.02 0.04 0.05 0.05 0.06 0.03 0.04 0.07 0.11 0.09 0.02 0.00 0.00 0.00 0.00 0.00 0.00 0.00 0.00 0.00 0.00 0.00 0.00 0.00 0.00 0.00 0.00 0.00 0.00 0.00
0.00 0.00 0.01 0.02 0.03 0.05 0.06 0.06 0.05 0.05 0.03 0.05 0.06 0.04 0.00 0.00 0.00 0.00 0.00 0.00 0.00 0.00 0.00 0.00 0.00 0.00 0.00 0.00 0.00 0.00 0.00 0.00 0.00
0.00 0.00 0.00 0.00 0.01 0.04 0.06 0.09 0.11 0.07 0.01 0.01 0.01 0.00 0.00 0.00 0.00 0.00 0.00 0.00 0.00 0.00 0.00 0.01 0.00 0.00 0.00 0.00 0.00 0.00 0.00 0.00 0.00
0.00 0.00 0.00 0.00 0.00 0.01 0.03 0.05 0.08 0.05 0.04 0.02 0.01 0.00 0.02 0.04 0.02 0.00 0.00 0.00 0.00 0.00 0.00 0.00 0.02 0.01 0.00 0.00 0.00 0.00 0.00 0.00 0.00
0.00 0.00 0.00 0.00 0.00 0.01 0.04 0.05 0.06 0.10 0.09 0.06 0.07 0.05 0.03 0.05 0.06 0.03 0.00 0.00 0.00 0.00 0.00 0.00 0.00 0.01 0.04 0.02 0.00 0.00 0.00 0.00 0.00
0.00 0.00 0.00 0.00 0.00 0.00 0.02 0.04 0.09 0.13 0.16 0.18 0.18 0.17 0.09 0.08 0.08 0.04 0.04 0.00 0.00 0.00 0.00 0.00 0.00 0.00 0.01 0.10 0.09 0.04 0.01 0.00 0.00
0.00 0.00 0.00 0.00 0.00 0.00 0.00 0.02 0.05 0.11 0.16 0.19 0.27 0.29 0.30 0.26 0.20 0.09 0.05 0.02 0.00 0.00 0.00 0.00 0.00 0.00 0.00 0.00 0.06 0.06 0.06 0.04 0.03
0.00 0.00 0.00 0.00 0.00 0.00 0.00 0.00 0.03 0.05 0.10 0.14 0.21 0.25 0.30 0.30 0.27 0.23 0.11 0.05 0.02 0.00 0.01 0.01 0.00 0.00 0.00 0.00 0.00 0.02 0.04 0.07 0.06
0.00 0.00 0.00 0.00 0.00 0.00 0.00 0.00 0.01 0.03 0.06 0.10 0.16 0.21 0.24 0.31 0.32 0.30 0.26 0.13 0.04 0.01 0.01 0.03 0.01 0.00 0.00 0.00 0.00 0.00 0.01 0.03 0.05
0.00 0.00 0.00 0.00 0.00 0.00 0.00 0.00 0.00 0.01 0.03 0.08 0.13 0.21 0.25 0.29 0.36 0.40 0.36 0.27 0.13 0.05 0.02 0.01 0.03 0.04 0.01 0.00 0.00 0.01 0.04 0.08 0.08
0.00 0.00 0.00 0.00 0.00 0.00 0.00 0.00 0.00 0.00 0.01 0.05 0.11 0.19 0.22 0.25 0.28 0.30 0.34 0.40 0.34 0.23 0.17 0.14 0.12 0.07 0.03 0.03 0.02 0.04 0.08 0.09 0.07
0.00 0.00 0.00 0.00 0.00 0.00 0.00 0.00 0.00 0.00 0.03 0.06 0.05 0.08 0.19 0.35 0.42 0.42 0.39 0.46 0.43 0.49 0.82 1.30 1.11 0.86 0.70 0.44 0.23 0.16 0.14 0.11 0.07
0.00 0.00 0.00 0.00 0.00 0.00 0.00 0.01 0.04 0.04 0.07 0.09 0.09 0.08 0.11 0.20 0.39 0.54 0.62 0.96 1.36 1.52 1.63 1.53 1.43 1.01 0.93 0.97 0.83 0.52 0.37 0.23 0.12
0.00 0.00 0.00 0.01 0.02 0.01 0.01 0.07 0.18 0.13 0.08 0.13 0.17 0.16 0.12 0.06 0.10 0.34 0.43 0.63 0.70 0.82 0.94 0.70 0.58 0.47 0.31 0.26 0.31 0.29 0.20 0.14 0.08
0.00 0.00 0.00 0.01 0.02 0.02 0.03 0.02 0.09 0.11 0.09 0.08 0.09 0.12 0.18 0.09 0.03 0.07 0.22 0.27 0.33 0.36 0.39 0.25 0.16 0.16 0.19 0.21 0.16 0.14 0.10 0.04 0.01
0.00 0.00 0.00 0.00 0.01 0.03 0.05 0.12 0.16 0.24 0.21 0.12 0.08 0.04 0.04 0.02 0.00 0.01 0.01 0.03 0.04 0.06 0.09 0.07 0.07 0.08 0.11 0.11 0.13 0.14 0.12 0.09 0.05